Location: Ferma
(41.9500°N, 44.5167°E)
Time: 13:13:19
(UTC+00:00)

Cosmos 220 Rocket - Pass Details

Date: 04 June 2022
Orbit: 572 x 614 km, 74.0° (Epoch: 03 July)

Event Time Altitude Azimuth Distance (km) Brightness Sun altitude
Exits shadow 19:03:25 55° 170° (S) 690 3.9 -20.1°
Maximum altitude 19:04:11 72° 108° (ESE) 604 3.8 -20.2°
Drops below altitude 10° 19:08:23 10° 24° (NNE) 1,888 7.0 -20.5°
Sets 19:10:36 0° 22° (NNE) 2,795 8.0 -20.7°
